This is the latest recevied weather packets stored in our database for station/object KG7MRB. If no packets are shown the sender has not sent any weather packets the latest 10 day(s).
| Time | Temp. | Humidity | Pressure | Rain* | Wind** | Luminosity | Snow |
|---|---|---|---|---|---|---|---|
| 1777580247 | 22.78° C | 46% | 1037.4 hPa | 0 mm | - | 457 W/m² | - |
| 1777579945 | 23.33° C | 45% | 1037.4 hPa | 0 mm | - | 470 W/m² | - |
| 1777579645 | 22.78° C | 46% | 1037.5 hPa | 0 mm | - | 674 W/m² | - |
| 1777579344 | 22.22° C | 47% | 1037.4 hPa | 0 mm | - | 750 W/m² | - |
| 1777579039 | 22.22° C | 48% | 1037.6 hPa | 0 mm | - | 277 W/m² | - |
| 1777578734 | 22.22° C | 46% | 1037.7 hPa | 0 mm | - | 355 W/m² | - |
| 1777578429 | 22.78° C | 46% | 1037.9 hPa | 0 mm | - | 673 W/m² | - |
| 1777578125 | 22.78° C | 47% | 1037.9 hPa | 0 mm | - | 739 W/m² | - |
| 1777577821 | 22.78° C | 46% | 1037.9 hPa | 0 mm | - | 721 W/m² | - |
| 1777577517 | 22.78° C | 48% | 1038 hPa | 0 mm | - | 576 W/m² | - |
| 1777577214 | 22.78° C | 48% | 1038.1 hPa | 0 mm | - | 686 W/m² | - |
| 1777576910 | 22.22° C | 47% | 1037.9 hPa | 0 mm | - | 633 W/m² | - |
| 1777576605 | 21.67° C | 49% | 1038.2 hPa | 0 mm | - | 614 W/m² | - |
| 1777576300 | 21.67° C | 48% | 1038.2 hPa | 0 mm | - | 605 W/m² | - |
| 1777575997 | 22.22° C | 49% | 1038.2 hPa | 0 mm | - | 599 W/m² | - |
| 1777575693 | 22.22° C | 49% | 1038.4 hPa | 0 mm | - | 606 W/m² | - |
| 1777575388 | 21.67° C | 47% | 1038.2 hPa | 0 mm | - | 618 W/m² | - |
| 1777575085 | 21.67° C | 48% | 1038.2 hPa | 0 mm | - | 623 W/m² | - |
| 1777574781 | 21.67° C | 47% | 1038.4 hPa | 0 mm | - | 619 W/m² | - |
| 1777574479 | 20.56° C | 49% | 1038.4 hPa | 0 mm | - | 624 W/m² | - |
| 1777574175 | 20.56° C | 48% | 1038.5 hPa | 0 mm | - | 482 W/m² | - |
| 1777573870 | 20.56° C | 48% | 1038.7 hPa | 0 mm | - | 535 W/m² | - |
| 1777573565 | 21.11° C | 47% | 1038.4 hPa | 0 mm | - | 479 W/m² | - |
| 1777573262 | 20° C | 49% | 1038.6 hPa | 0 mm | - | 481 W/m² | - |
| 1777572958 | 20° C | 48% | 1038.7 hPa | 0 mm | - | 519 W/m² | - |
* Rain latest hour (hover to see other rain measurements)
** Current wind speed in m/s (hover to see current wind gust speed)